This demonstration page uses our WeatherBlox Daily Observations layout. Learn more.

41.55636, -103.73856

Hourly Observations for May 16, 2016

Temp ( °F °C ) Dew Point ( °F °C ) Humidity (%) Winds ( mph kmh ) Pressure ( in mb ) Visibility ( mi km ) Precip ( " mm )
12:53 am 00:53 Cloudy 43 6.1 39 3.9 86 86 ESE 14 22 29.94 1014 10 16.0934 0 0.0254
1:30 am 01:30 Cloudy 43 6 37 3 81 81 E 10 17 29.97 1015 10 16.0934 0 0
1:39 am 01:39 Cloudy 43 6.1 38 3.3 82 82 E 10 17 29.94 1014 10 16.0934 0 0
1:46 am 01:46 Cloudy 43 6 37 3 81 81 E 10 17 29.94 1014 10 16.0934 0 0
1:53 am 01:53 Cloudy 42 5.6 38 3.3 85 85 E 12 19 29.94 1014 10 16.0934 0 0
2:53 am 02:53 Cloudy 43 6.1 38 3.3 82 82 E 12 19 29.92 1013 10 16.0934 0 0
3:53 am 03:53 Cloudy 43 6.1 38 3.3 82 82 E 10 17 29.93 1013 10 16.0934 0 0
4:53 am 04:53 Cloudy 42 5.6 38 3.3 85 85 E 12 19 29.93 1014 10 16.0934 0 0
5:53 am 05:53 Cloudy 42 5.6 38 3.3 85 85 E 12 19 29.94 1014 10 16.0934 0 0
6:37 am 06:37 Cloudy 42 5.6 38 3.3 85 85 ESE 12 19 29.97 1015 10 16.0934 0 0
6:53 am 06:53 Cloudy with Mist and Fog 41 5 38 3.3 89 89 ESE 12 19 29.97 1015 6 9.65604 0 0
7:15 am 07:15 Cloudy with Mist and Fog 41 5 39 3.9 93 93 ESE 12 19 30 1016 2.5 4.02335 0 0
7:26 am 07:26 Cloudy with Light Rain 41 5 39 3.9 93 93 ESE 12 19 30 1016 1.5 2.41401 0 0.0254
7:36 am 07:36 Cloudy with Light Rain 41 5 39 3.9 93 93 E 9 15 30 1016 2 3.21868 0.01 0.254
7:53 am 07:53 Cloudy with Light Rain 41 5 39 3.9 93 93 E 9 15 29.99 1016 3 4.82802 0.01 0.254
8:53 am 08:53 Cloudy with Light Rain 42 5.6 40 4.4 92 92 ESE 9 15 30.01 1016 6 9.65604 0.02 0.508
9:53 am 09:53 Cloudy 43 6.1 40 4.4 89 89 ESE 10 17 30.01 1016 8 12.87472 0 0.0254
10:53 am 10:53 Cloudy with Mist and Fog 43 6 41 5 93 93 E 13 20 30.06 1018 4 6.43736 0 0
11:26 am 11:26 Cloudy 45 7 41 5 87 87 E 12 19 30.03 1017 7 11.26538 0 0
11:30 am 11:30 Cloudy with Mist and Fog 45 7 41 5 87 87 E 10 17 30.03 1017 5 8.0467 0 0
11:51 am 11:51 Cloudy with Mist and Fog 45 7 41 5 87 87 E 12 19 30.03 1017 2.5 4.02335 0 0
11:53 am 11:53 Cloudy with Mist and Fog 44 6.7 41 5 89 89 E 12 19 30.04 1017 2 3.21868 0 0
11:55 am 11:55 Cloudy with Mist and Fog 44 6.7 41 5 89 89 E 12 19 30.03 1017 1.75 2.816345 0 0
12:51 pm 12:51 Cloudy with Mist and Fog 45 7 43 6 93 93 E 10 17 30.06 1018 2 3.21868 0 0.0254
12:53 pm 12:53 Cloudy with Mist and Fog 45 7.2 42 5.6 90 90 E 13 20 30.05 1018 2.5 4.02335 0 0.0254
1:49 pm 13:49 Cloudy with Mist and Fog 45 7 43 6 93 93 E 12 19 30.06 1018 2.5 4.02335 0.01 0.254
1:53 pm 13:53 Cloudy with Mist and Fog 45 7.2 42 5.6 90 90 E 13 20 30.06 1018 2 3.21868 0.01 0.254
1:56 pm 13:56 Cloudy with Light Rain 45 7.2 42 5.6 90 90 E 12 19 30.06 1018 1.75 2.816345 0 0.0254
2:11 pm 14:11 Cloudy with Light Rain 45 7.2 42 5.6 90 90 E 12 19 30.06 1018 1.5 2.41401 0 0.0254
2:15 pm 14:15 Cloudy with Light Rain 45 7.2 42 5.6 90 90 E 12 19 30.06 1018 1.75 2.816345 0.01 0.254
2:20 pm 14:20 Cloudy with Mist and Fog 45 7 43 6 93 93 E 13 20 30.06 1018 2 3.21868 0 0
2:22 pm 14:22 Cloudy with Light Rain 45 7 43 6 93 93 E 13 20 30.06 1018 1.75 2.816345 0 0
2:34 pm 14:34 Cloudy with Light Rain 45 7 43 6 93 93 ESE 13 20 30.06 1018 2 3.21868 0 0
2:45 pm 14:45 Cloudy with Mist and Fog 46 7.8 43 6.1 89 89 E 13 20 30.06 1018 4 6.43736 0.01 0.254
2:53 pm 14:53 Cloudy with Mist and Fog 46 7.8 43 6.1 89 89 E 12 19 30.07 1018 3 4.82802 0.01 0.254
2:55 pm 14:55 Cloudy with Mist and Fog 46 7.8 43 6.1 89 89 E 15 24 30.06 1018 2.5 4.02335 0 0
3:03 pm 15:03 Cloudy with Light Rain 45 7 43 6 93 93 E 15 24 30.06 1018 2 3.21868 0 0
3:17 pm 15:17 Cloudy with Mist and Fog 45 7.2 43 6.1 93 93 E 14 22 30.09 1019 3 4.82802 0 0.0254
3:27 pm 15:27 Cloudy with Light Rain 45 7.2 42 5.6 90 90 E 12 19 30.09 1019 2.5 4.02335 0 0.0254
3:35 pm 15:35 Cloudy with Light Rain 46 7.8 42 5.6 86 86 E 14 22 30.09 1019 6 9.65604 0 0.0254
3:46 pm 15:46 Cloudy 45 7 43 6 93 93 E 15 24 30.09 1019 7 11.26538 0 0
3:53 pm 15:53 Cloudy with Mist and Fog 45 7.2 42 5.6 90 90 E 13 20 30.09 1019 4 6.43736 0 0.0254
4:00 pm 16:00 Cloudy with Mist and Fog 46 8 43 6 87 87 E 9 15 30.09 1019 4 6.43736 0 0
4:12 pm 16:12 Cloudy 46 8 43 6 87 87 E 12 19 30.09 1019 10 16.0934 0 0
4:50 pm 16:50 Cloudy with Light Rain 45 7 43 6 93 93 E 9 15 30.09 1019 4 6.43736 0 0
4:53 pm 16:53 Cloudy with Light Rain 45 7.2 42 5.6 90 90 E 10 17 30.11 1020 4 6.43736 0.02 0.508
5:53 pm 17:53 Cloudy with Light Rain 47 8.3 42 5.6 83 83 E 6 9 30.13 1020 10 16.0934 0.03 0.762
6:06 pm 18:06 Cloudy with Light Rain 46 8 43 6 87 87 E 7 11 30.12 1020 10 16.0934 0 0
6:53 pm 18:53 Cloudy with Light Rain 46 7.8 42 5.6 86 86 E 8 13 30.16 1021 10 16.0934 0.02 0.508
7:53 pm 19:53 Cloudy with Light Rain 45 7.2 42 5.6 90 90 ENE 10 17 30.18 1022 9 14.48406 0.01 0.254
8:53 pm 20:53 Cloudy 45 7.2 44 6.7 97 97 NE 6 9 30.2 1023 10 16.0934 0 0.0254
9:44 pm 21:44 Cloudy 45 7 43 6 93 93 ENE 12 19 30.21 1023 10 16.0934 0 0
9:53 pm 21:53 Cloudy 45 7.2 42 5.6 90 90 ENE 9 15 30.23 1024 10 16.0934 0 0
10:03 pm 22:03 Cloudy 45 7.2 41 5 86 86 ENE 7 11 30.21 1023 10 16.0934 0 0
10:17 pm 22:17 Cloudy 45 7.2 41 5 86 86 ENE 8 13 30.24 1024 10 16.0934 0 0
10:53 pm 22:53 Cloudy 44 6.7 41 5 89 89 ENE 3 6 30.23 1024 10 16.0934 0 0
11:53 pm 23:53 Mostly Clear 42 5.6 39 3.9 89 89 Calm 30.24 1024 10 16.0934 0 0

Powered by AerisWeather